Weather History for Havre, MT

Change the Weather History Date:

Saturday, January 19, 2013

  Actual Average Record
Temperature  
Mean Temperature 24 °F 18 °F  
Max Temperature 31 °F 29 °F 63 °F (1944)
Min Temperature 16 °F 8 °F -43 °F (1883)
Degree Days  
Heating Degree Days 41 47  
Month to date heating degree days 815 904  
Since 1 July heating degree days 4185 4370  
Cooling Degree Days 0 0  
Month to date cooling degree days 0 0  
Year to date cooling degree days 0 0  
Moisture  
Dew Point 17 °F    
Average Humidity 76    
Maximum Humidity 84    
Minimum Humidity 68    
Precipitation  
Precipitation 0.00 in 0.01 in 0.30 in (1920)
Month to date precipitation 0.87 0.23  
Year to date precipitation 0.87 0.23  
Snow  
Snow 0.00 in 0.20 in 4.40 in (1920)
Month to date snowfall 15.0 4.9  
Since 1 July snowfall 40.0 19.9  
Snow Depth 4.00 in    
Sea Level Pressure  
Sea Level Pressure 30.29 in    
Wind  
Wind Speed 6 mph (NNW)    
Max Wind Speed 16 mph    
Max Gust Speed 21 mph    
Visibility 10 miles    
Events      
T = Trace of Precipitation, MM = Missing Value Source: NWS Daily Summary

Daily Weather History Graph

Daily Weather History Graph

Search for Another Location

Airport:

Trip Planner

Search our weather history database for the weather conditions in past years. The results will help you decide how hot, cold, wet, or windy it might be!

Date:

Astronomy

Jan. 19, 2013 Rise Set
Actual Time 8:02 AM MST 4:57 PM MST
Civil Twilight 7:27 AM MST 5:32 PM MST
Nautical Twilight 6:48 AM MST 6:11 PM MST
Astronomical Twilight 6:11 AM MST 6:48 PM MST
Moon 11:31 AM MST (1/19) 1:33 AM MST (1/19)
Length of Visible Light 10h 05m
Length of Day
8h 55m
First Quarter, 58% of the Moon is Illuminated
Jan 19
First Quarter
Jan 26
Full
Feb 3
Last Quarter
Feb 10
New
Feb 17
First Quarter

Hourly Weather History & Observations

Time (MST) Temp. Windchill Dew Point Humidity Pressure Visibility Wind Dir Wind Speed Gust Speed Precip Events Conditions
12:53 AM 27.0 °F 16.7 °F 19.9 °F 75% 30.06 in 10.0 mi WSW 11.5 mph - N/A   Clear
1:53 AM 24.1 °F 15.2 °F 18.0 °F 77% 30.12 in 10.0 mi WSW 8.1 mph - N/A   Clear
2:53 AM 21.0 °F 13.4 °F 16.0 °F 81% 30.17 in 10.0 mi West 5.8 mph - N/A   Clear
3:53 AM 21.0 °F 16.2 °F 16.0 °F 81% 30.19 in 10.0 mi West 3.5 mph - N/A   Overcast
4:53 AM 21.9 °F 15.7 °F 17.1 °F 82% 30.22 in 10.0 mi West 4.6 mph - N/A   Scattered Clouds
5:18 AM 24.8 °F 15.3 °F 17.6 °F 74% 30.16 in 10.0 mi NW 9.2 mph - N/A   Mostly Cloudy
5:53 AM 27.0 °F 18.0 °F 21.0 °F 78% 30.27 in 10.0 mi North 9.2 mph - N/A   Overcast
6:53 AM 26.1 °F 19.4 °F 19.9 °F 78% 30.31 in 10.0 mi NNE 5.8 mph - N/A   Mostly Cloudy
7:02 AM 26.6 °F 20.0 °F 19.4 °F 74% 30.22 in 10.0 mi NNE 5.8 mph - N/A   Scattered Clouds
7:53 AM 24.1 °F 19.7 °F 19.0 °F 81% 30.33 in 10.0 mi West 3.5 mph - N/A   Mostly Cloudy
8:00 AM 23.0 °F - 17.6 °F 80% 30.25 in 10.0 mi Calm Calm - N/A   Mostly Cloudy
8:41 AM 24.8 °F - 19.4 °F 80% 30.27 in 10.0 mi Calm Calm - N/A   Mostly Cloudy
8:53 AM 25.0 °F - 19.0 °F 78% 30.37 in 10.0 mi Calm Calm - N/A   Scattered Clouds
9:53 AM 24.1 °F 18.2 °F 19.0 °F 81% 30.39 in 10.0 mi West 4.6 mph - N/A   Mostly Cloudy
10:53 AM 23.0 °F 13.1 °F 17.1 °F 78% 30.42 in 10.0 mi WNW 9.2 mph - N/A   Overcast
11:53 AM 23.0 °F 15.8 °F 17.1 °F 78% 30.40 in 10.0 mi NW 5.8 mph - N/A   Overcast
12:53 PM 24.1 °F - 16.0 °F 71% 30.38 in 10.0 mi Calm Calm - N/A   Overcast
1:53 PM 24.1 °F - 17.1 °F 75% 30.36 in 10.0 mi Calm Calm - N/A   Overcast
2:53 PM 24.1 °F - 17.1 °F 75% 30.32 in 10.0 mi Calm Calm - N/A   Overcast
3:53 PM 25.0 °F - 18.0 °F 75% 30.30 in 10.0 mi Calm Calm - N/A   Overcast
4:53 PM 23.0 °F 13.9 °F 17.1 °F 78% 30.28 in 10.0 mi ENE 8.1 mph - N/A   Partly Cloudy
5:53 PM 21.0 °F 9.3 °F 15.1 °F 78% 30.27 in 10.0 mi ENE 11.5 mph - N/A   Clear
6:53 PM 19.9 °F 7.3 °F 15.1 °F 81% 30.25 in 10.0 mi ENE 12.7 mph - N/A   Clear
7:53 PM 19.0 °F 6.8 °F 15.1 °F 85% 30.26 in 10.0 mi ENE 11.5 mph - N/A   Mostly Cloudy
8:53 PM 17.1 °F 4.3 °F 14.0 °F 88% 30.27 in 10.0 mi ENE 11.5 mph - N/A   Overcast
9:53 PM 17.1 °F 5.8 °F 14.0 °F 88% 30.28 in 10.0 mi NE 9.2 mph - N/A   Overcast
10:53 PM 17.1 °F 10.0 °F 12.9 °F 84% 30.34 in 10.0 mi NE 4.6 mph - N/A   Mostly Cloudy
11:53 PM 17.1 °F 6.6 °F 12.0 °F 81% 30.42 in 10.0 mi North 8.1 mph - N/A   Overcast